Tracking 25709 objects as of 23-May-2022
HD Live streaming from Space Station
objects crossing your sky now

FLOCK 4V 16

Track FLOCK 4V 16 now!
10-day predictions
FLOCK 4V 16 is classified as:


NORAD ID: 46527
Int'l Code: 2020-061BD
Perigee: 507.4 km
Apogee: 517.7 km
Inclination: 97.4 °
Period: 94.7 minutes
Semi major axis: 6883 km
RCS: Unknown
Launch date: September 3, 2020
Source: United States (US)
Launch site: FRENCH GUIANA (FRGUI)
aabbcc
Your satellite tracking list
Your tracking list is empty




NASA's NSSDC Master Catalog

Two Line Element Set (TLE):
1 46527U 20061BD  22143.44883495  .00011218  00000-0  52109-3 0  9993
2 46527  97.3992 215.0197 0007519 196.7493 163.3495 15.20141446 91088
Source of the keplerian elements: AFSPC